Weather History for Tanger, Morocco

Change the Weather History Date:

Sunday, October 30, 2011

  Actual Average Record
Temperature  
Mean Temperature 67 °F -  
Max Temperature 79 °F 65 °F 84 °F (2006)
Min Temperature 55 °F 51 °F 48 °F (2008)
Cooling Degree Days 2    
Growing Degree Days 17 (Base 50)    
Moisture  
Dew Point 56 °F    
Average Humidity 69    
Maximum Humidity 94    
Minimum Humidity 33    
Precipitation  
Precipitation 0.00 in 0.18 in - ()
Sea Level Pressure  
Sea Level Pressure 30.09 in    
Wind  
Wind Speed 8 mph ()    
Max Wind Speed 20 mph    
Max Gust Speed -    
Visibility 4.5 miles    
Events      
Averages and records for this station are not official NWS values.
T = Trace of Precipitation, MM = Missing Value Source: Averaged Metar Reports

Daily Weather History Graph

Daily Weather History Graph

Search for Another Location

Airport:

Trip Planner

Search our weather history database for the weather conditions in past years. The results will help you decide how hot, cold, wet, or windy it might be!

Date:

Astronomy

Oct. 30, 2011 Rise Set
Actual Time 6:43 AM WET 5:30 PM WET
Civil Twilight 6:17 AM WET 5:57 PM WET
Nautical Twilight 5:46 AM WET 6:27 PM WET
Astronomical Twilight 5:17 AM WET 6:56 PM WET
Moon 10:44 AM WET (10/30) 8:49 PM WET (10/30)
Length of Visible Light 11h 40m
Length of Day
10h 47m
Waxing Crescent, 18% of the Moon is Illuminated
Oct 30
Waxing Crescent
Nov 2
First Quarter
Nov 10
Full
Nov 18
Last Quarter
Nov 25
New

Hourly Weather History & Observations

Time (WET) Temp. Dew Point Humidity Pressure Visibility Wind Dir Wind Speed Gust Speed Precip Events Conditions
12:00 AM 58 °F 56 °F 90% 30.14 in 5 mi ESE 3.5 mph - -   Scattered Clouds
12:00 AM 59.0 °F 55.4 °F 88% 30.12 in 5.0 mi ESE 3.5 mph - N/A   Scattered Clouds
12:30 AM 57.2 °F 55.4 °F 94% 30.12 in 5.0 mi Calm Calm - N/A   Scattered Clouds
1:00 AM 57.2 °F 55.4 °F 94% 30.12 in 5.0 mi ESE 5.8 mph - N/A   Scattered Clouds
1:30 AM 59.0 °F 57.2 °F 94% 30.12 in 0.7 mi East 5.8 mph - N/A   Scattered Clouds
2:00 AM 59.0 °F 55.4 °F 88% 30.09 in 0.7 mi ESE 4.6 mph - N/A   Scattered Clouds
2:30 AM 59.0 °F 57.2 °F 94% 30.09 in 0.7 mi East 8.1 mph - N/A   Unknown
3:00 AM 58 °F 56 °F 90% 30.11 in 1 mi East 8.1 mph - -  
3:00 AM 59.0 °F 55.4 °F 88% 30.09 in 0.8 mi East 8.1 mph - N/A   Unknown
3:30 AM 59.0 °F 55.4 °F 88% 30.09 in 0.7 mi East 6.9 mph - N/A   Unknown
4:00 AM 59.0 °F 55.4 °F 88% 30.09 in 0.7 mi East 6.9 mph - N/A   Unknown
4:30 AM 57.2 °F 55.4 °F 94% 30.09 in 0.7 mi East 6.9 mph - N/A   Unknown
5:00 AM 57.2 °F 53.6 °F 88% 30.09 in 0.8 mi Calm Calm - N/A   Unknown
5:30 AM 57.2 °F 55.4 °F 94% 30.09 in 5.0 mi ENE 4.6 mph - N/A   Scattered Clouds
6:00 AM 57.2 °F 53.6 °F 88% 30.09 in 5.0 mi Variable 2.3 mph - N/A   Scattered Clouds
6:30 AM 55.4 °F 53.6 °F 94% 30.09 in 5.0 mi Variable 2.3 mph - N/A   Scattered Clouds
7:00 AM 55.4 °F 51.8 °F 88% 30.09 in 5.0 mi ESE 1.2 mph - N/A   Scattered Clouds
7:30 AM 57.2 °F 55.4 °F 94% 30.12 in 5.0 mi ESE 1.2 mph - N/A   Scattered Clouds
8:00 AM 60.8 °F 57.2 °F 88% 30.12 in 5.0 mi East 2.3 mph - N/A   Scattered Clouds
8:30 AM 64.4 °F 59.0 °F 83% 30.12 in 5.0 mi ENE 9.2 mph - N/A   Unknown
9:00 AM 67 °F 60 °F 72% 30.14 in 5 mi ENE 12.7 mph - -   Partly Cloudy
9:00 AM 66.2 °F 60.8 °F 83% 30.12 in 5.0 mi ENE 12.7 mph - N/A   Unknown
9:30 AM 68.0 °F 59.0 °F 73% 30.12 in 5.0 mi ENE 11.5 mph - N/A   Unknown
10:00 AM 71.6 °F 59.0 °F 64% 30.12 in 5.0 mi East 8.1 mph - N/A   Unknown
10:30 AM 73.4 °F 59.0 °F 61% 30.12 in - East 6.9 mph - N/A   Clear
11:00 AM 75.2 °F 57.2 °F 53% 30.12 in - ENE 9.2 mph - N/A   Clear
11:30 AM 77.0 °F 57.2 °F 50% 30.12 in - East 11.5 mph - N/A   Clear
12:00 PM 78 °F 54 °F 33% 30.12 in 6 mi East 17.3 mph - -   Clear
12:00 PM 78.8 °F 53.6 °F 42% 30.09 in - East 17.3 mph - N/A   Clear
12:30 PM 78.8 °F 53.6 °F 42% 30.09 in - East 19.6 mph - N/A   Clear
1:00 PM 78.8 °F 53.6 °F 42% 30.09 in - ESE 19.6 mph - N/A   Clear
1:30 PM 78.8 °F 53.6 °F 42% 30.06 in 6.2 mi ESE 18.4 mph - N/A   Scattered Clouds
2:00 PM 78.8 °F 53.6 °F 42% 30.06 in 6.2 mi ESE 16.1 mph - N/A   Scattered Clouds
2:30 PM 78.8 °F 53.6 °F 42% 30.06 in 6.2 mi East 15.0 mph - N/A   Mostly Cloudy
3:00 PM 78.8 °F 53.6 °F 42% 30.06 in 6.2 mi East 15.0 mph - N/A   Mostly Cloudy
3:30 PM 77.0 °F 51.8 °F 41% 30.06 in 6.2 mi East 18.4 mph - N/A   Mostly Cloudy
4:00 PM 75.2 °F 51.8 °F 44% 30.06 in 6.2 mi East 17.3 mph - N/A   Mostly Cloudy
4:30 PM 75.2 °F 53.6 °F 47% 30.06 in 6.2 mi East 18.4 mph - N/A   Mostly Cloudy
5:00 PM 73.4 °F 53.6 °F 50% 30.06 in 6.2 mi East 13.8 mph - N/A   Mostly Cloudy
5:30 PM 71.6 °F 55.4 °F 57% 30.06 in 6.2 mi East 15.0 mph - N/A   Mostly Cloudy
6:00 PM 71 °F 55 °F 47% 30.08 in 6 mi East 15.0 mph - -   Scattered Clouds
6:00 PM 71.6 °F 55.4 °F 57% 30.06 in 6.2 mi East 15.0 mph - N/A   Mostly Cloudy
6:30 PM 69.8 °F 55.4 °F 60% 30.06 in 6.2 mi East 16.1 mph - N/A   Mostly Cloudy
7:00 PM 69.8 °F 57.2 °F 64% 30.06 in 5.0 mi ESE 16.1 mph - N/A   Scattered Clouds
7:30 PM 69.8 °F 57.2 °F 64% 30.06 in 5.0 mi East 18.4 mph - N/A   Scattered Clouds
8:00 PM 68.0 °F 57.2 °F 68% 30.06 in 5.0 mi East 13.8 mph - N/A   Scattered Clouds
8:30 PM 68.0 °F 57.2 °F 68% 30.06 in 5.0 mi East 16.1 mph - N/A   Scattered Clouds
9:00 PM 68 °F 57 °F 60% 30.09 in 5 mi East 11.5 mph - -   Scattered Clouds
9:00 PM 68.0 °F 57.2 °F 68% 30.06 in 5.0 mi East 11.5 mph - N/A   Scattered Clouds
9:30 PM 68.0 °F 57.2 °F 68% 30.06 in 5.0 mi East 17.3 mph - N/A   Scattered Clouds
10:00 PM 69.8 °F 57.2 °F 64% 30.06 in 5.0 mi East 17.3 mph - N/A   Scattered Clouds
10:30 PM 68.0 °F 57.2 °F 68% 30.06 in 5.0 mi East 13.8 mph - N/A   Scattered Clouds
11:00 PM 68.0 °F 57.2 °F 68% 30.06 in 5.0 mi East 12.7 mph - N/A   Scattered Clouds
11:30 PM 68.0 °F 57.2 °F 68% 30.06 in 5.0 mi East 11.5 mph - N/A   Scattered Clouds